Rbgn^[z[y[W
メイン
   新天体発見情報
     Comet P/2011 VJ5 = 2017 W1 (Lemmon)
投稿するにはまず登録を

スレッド表示 | 新しいものから 前のトピック | 次のトピック | 下へ
投稿者 スレッド
佐藤裕久
投稿日時: 2017-11-29 23:29
モデレータ
登録日: 2005-6-12
居住地: 日本
投稿: 2505
オンライン
Comet P/2011 VJ5 = 2017 W1 (Lemmon)

Erwin Schwab (Egelsbach, ドイツ)の通報によると、11月19日UT、P/2011 VJ5 (Lemmon) が、Pablo 
Ruizによりスペイン領カナリア諸島Tenerife島にあるESA(欧州宇宙機関)の光学地上局の1.0-m 
f/4.4反射望遠鏡で得た画像から検出された。Schwabによって、スペインのCalar Alto天文台の0.8-m
f/3 Schmidt望遠鏡で得た画像から確認された。さらに、10月27日、11月18日に1.8-m Pan-STARRS1
望遠鏡の画像と11月16日にA. D. GrauerがMt. Lemmonの1.5-m反射望遠鏡で得た画像にも写っていた。
MPC 94678のG. V. Williamsの予報に対して、Delta(T)は、+0.82であった。ICQ's 2017 Comet
Handbookの中野主一氏の予報に対して、Delta(T)は、+1.04 dayであった。

検出位置は次のとおり、

     2017 UT             R.A. (2000) Decl.       Mag.   Observer
     Oct. 27.42133    3 58 57.82   +14 16 03.9   21.9   Pan-STARRS1
          27.43300    3 58 57.56   +14 16 00.8   21.7     "
          27.44473    3 58 57.27   +14 15 57.1   21.9     "
          27.45640    3 58 57.02   +14 15 54.1   22.1     "
     Nov. 16.29982    3 46 41.75   +12 27 57.1   21.3   Grauer
          16.30499    3 46 41.46   +12 27 55.1   20.9     "
          16.31018    3 46 41.18   +12 27 53.8   21.3     "
          16.31541    3 46 40.88   +12 27 51.8   20.3     "
          18.34737    3 44 56.23   +12 16 22.0   20.8   Pan-STARRS1
          18.35905    3 44 55.58   +12 16 18.2   21.0     "
          18.37076    3 44 54.93   +12 16 14.4   21.0     "
          19.12644    3 44 14.55   +12 11 57.9   20.3   Ruiz
          19.13624    3 44 14.01   +12 11 54.7   20.2     "
          19.14605    3 44 13.48   +12 11 51.5   20.6     "
          19.81367    3 43 38.67   +12 08 05.9   20.4   Schwab
          19.82317    3 43 38.15   +12 08 02.7   20.2     "
          19.83266    3 43 37.64   +12 07 59.7   20.3     ""

連結軌道要素と位置推算表は次のとおり、

Orbital elements:
    P/2011 VJ5 (Lemmon)
Epoch 2011 Dec. 25.0 TT = JDT 2455920.5
T 2011 Dec. 8.70260 TT                                  MPCW
q   1.5063991            (2000.0)            P               Q
n   0.15703181     Peri.  315.12628     -0.57564434     -0.81761164
a   3.4026005      Node   169.99785     +0.76832758     -0.54586454
e   0.5572801      Incl.    3.97275     +0.27983268     -0.18314777
P   6.28
From 63 observations 2011 Nov. 3-2017 Nov. 19, mean residual 0".5.

    P/2011 VJ5 (Lemmon)
Epoch 2018 Mar. 23.0 TT = JDT 2458200.5
T 2018 Mar. 22.92426 TT                                 MPCW
q   1.5078679            (2000.0)            P               Q
n   0.15691723     Peri.  315.28158     -0.57671018     -0.81685865
a   3.4042567      Node   169.91712     +0.76760241     -0.54690050
e   0.5570640      Incl.    3.97540     +0.27962815     -0.18341699
P   6.28
From 63 observations 2011 Nov. 3-2017 Nov. 19, mean residual 0".5.

    P/2011 VJ5 (Lemmon)
Epoch 2024 Nov. 26.0 TT = JDT 2460640.5
T 2024 Nov. 13.20504 TT                                 MPCW
q   1.7208760            (2000.0)            P               Q
n   0.14584822     Peri.  340.75156     -0.60968337     -0.79096805
a   3.5743902      Node   146.75722     +0.73900907     -0.59073474
e   0.5185540      Incl.    5.39421     +0.28662131     -0.15938009
P   6.76
From 63 observations 2011 Nov. 3-2017 Nov. 19, mean residual 0".5.

    P/2011 VJ5 (Lemmon)
Epoch 2017 Sept. 4.0 TT = JDT 2458000.5
T 2018 Mar. 22.91320 TT                                 MPCW
q   1.5078774            (2000.0)            P               Q
n   0.15687187     Peri.  315.27513     -0.57664174     -0.81690699
a   3.4049128      Node   169.91877     +0.76764874     -0.54683572
e   0.5571466      Incl.    3.97540     +0.27964212     -0.18339482
P   6.28
From 63 observations 2011 Nov. 3-2017 Nov. 19, mean residual 0".5.

Ephemeris:
    P/2011 VJ5 (Lemmon)
Date    TT    R. A. (2000) Decl.     Delta      r     Elong.  Phase   m1
2017 10 20    04 00 36.9 +14 49 19   1.2363  2.1304   145.1    15.5  21.2
...
2017 11 04    03 55 31.4 +13 37 12   1.0763  2.0391   160.8     9.2  20.8
...
2017 11 12    03 50 10.1 +12 52 34   1.0108  1.9913   168.9     5.5  20.5
...
2017 11 18    03 45 14.2 +12 18 22   0.9716  1.9560   172.5     3.8  20.4
2017 11 19    03 44 21.6 +12 12 44   0.9659  1.9502   172.6     3.7  20.3
2017 11 20    03 43 28.3 +12 07 08   0.9604  1.9444   172.5     3.8  20.3
...
2017 11 26    03 37 59.9 +11 35 00   0.9326  1.9098   168.4     5.9  20.2
...
2017 12 04    03 30 48.9 +10 58 19   0.9085  1.8649   159.8    10.5  20.0
...
2017 12 19    03 20 32.4 +10 21 26   0.8990  1.7846   142.7    19.5  19.8

(CBET 4455、MPEC 2017-W73)

スレッド表示 | 新しいものから 前のトピック | 次のトピック | トップ

投稿するにはまず登録を
 
© 1999 Tsutomu Seki.